This is the latest recevied weather packets stored in our database for station/object DG1JLA-3. If no packets are shown the sender has not sent any weather packets the latest 10 day(s).
| Time | Temp. | Humidity | Pressure | Rain* | Wind** | Luminosity | Snow |
|---|---|---|---|---|---|---|---|
| 1777885195 | 20.56° C | 62% | 1015.9 hPa | 0 mm | - | - | - |
| 1777884895 | 20.56° C | 64% | 1015.9 hPa | 0 mm | - | - | - |
| 1777884595 | 20° C | 64% | 1015.9 hPa | 0 mm | - | - | - |
| 1777884295 | 19.44° C | 65% | 1015.9 hPa | 0 mm | - | - | - |
| 1777883995 | 19.44° C | 64% | 1015.9 hPa | 0 mm | - | - | - |
| 1777883695 | 19.44° C | 60% | 1015.8 hPa | 0 mm | - | - | - |
| 1777883395 | 19.44° C | 61% | 1015.8 hPa | 0 mm | - | - | - |
| 1777883095 | 19.44° C | 64% | 1015.8 hPa | 0 mm | - | - | - |
| 1777882795 | 18.89° C | 64% | 1015.8 hPa | 0 mm | - | - | - |
| 1777882495 | 19.44° C | 63% | 1015.8 hPa | 0 mm | - | - | - |
| 1777882195 | 18.89° C | 63% | 1015.8 hPa | 0 mm | - | - | - |
| 1777881895 | 18.33° C | 65% | 1015.7 hPa | 0 mm | - | - | - |
| 1777881595 | 18.33° C | 65% | 1015.7 hPa | 0 mm | - | - | - |
| 1777881295 | 17.78° C | 66% | 1015.8 hPa | 0 mm | - | - | - |
| 1777880995 | 17.22° C | 68% | 1015.7 hPa | 0 mm | - | - | - |
| 1777880695 | 16.67° C | 69% | 1015.8 hPa | 0 mm | - | - | - |
| 1777880395 | 16.67° C | 70% | 1015.6 hPa | 0 mm | - | - | - |
| 1777880095 | 16.67° C | 70% | 1015.6 hPa | 0 mm | - | - | - |
| 1777879795 | 16.11° C | 70% | 1015.6 hPa | 0 mm | - | - | - |
| 1777879495 | 16.11° C | 71% | 1015.5 hPa | 0 mm | - | - | - |
| 1777879195 | 16.11° C | 72% | 1015.6 hPa | 0 mm | - | - | - |
| 1777878895 | 15.56° C | 73% | 1015.5 hPa | 0 mm | - | - | - |
| 1777878595 | 15.56° C | 72% | 1015.5 hPa | 0 mm | - | - | - |
| 1777878295 | 15.56° C | 73% | 1015.6 hPa | 0 mm | - | - | - |
| 1777877995 | 15.56° C | 73% | 1015.6 hPa | 0 mm | - | - | - |
* Rain latest hour (hover to see other rain measurements)
** Current wind speed in m/s (hover to see current wind gust speed)